Tracking 29493 objects as of 8-Sep-2024
HD Live streaming from Space Station
objects crossing your sky now

FENGYUN 1C DEB

Track FENGYUN 1C DEB now!
10-day predictions


NORAD ID: 36994
Int'l Code: 1999-025ECA
Perigee: 848.8 km
Apogee: 1,019.8 km
Inclination: 98.6 °
Period: 103.6 minutes
Semi major axis: 7305 km
RCS: 0.0026 m2 (small)
Launch date: May 10, 1999
Source: People's Republic of China (PRC)
Launch site: Taiyaun Space Center, China (TSC)

Note: This is SATELLITE DEBRIS
Your satellite tracking list
Your tracking list is empty




NASA's NSSDC Master Catalog

Two Line Element Set (TLE):
1 36994U 99025ECA 24252.20109863  .00000705  00000-0  56609-3 0  9991
2 36994  98.5858 241.9448 0117026 120.0914 241.1910 13.90425791745063
Source of the keplerian elements: AFSPC